Flag for Ukraine Weather past 2 weeks in Chernobyl, Ukraine

Now
39 °F

Sunny.


Feels Like: 34 °F
Forecast: 30 / 42 °F
Wind: 8 mph from Northwest

Location: Hostomel

Current Time: Mar 6, 2015 at 4:37:14 PM

Latest Report: Mar 6, 2015 at 4:00 PM


Visibility: 10 mi

Pressure: 30.39 "Hg

Humidity: 65%

Dew point: 28 °F

Location of ChernobylLocation

Historic Weather in Chernobyl — Graph

°F

Chernobyl temperature yesterday

Maximum temperature yesterday: 45 °F (at 3:00 PM)
Minimum temperature yesterday: 30 °F (at 8:00 PM)
Average temperature yesterday: 38 °F

Past Weeks' High & Low Weather Summary

 TemperatureHumidityPressure
High50 °F (Feb 24, 2:30 PM)100% (Feb 19, 3:00 PM)30.39 "Hg (Feb 19, 3:00 PM)
Low28 °F (Mar 6, 7:00 AM)42% (Mar 5, 3:30 PM)29.71 "Hg (Mar 3, 7:00 AM)
Average38 °F88%30.02 "Hg
* Reported Feb 19 3:00 PM — Mar 6 3:30 PM, Chernobyl, Weather by CustomWeather, © 2015

Note: Actual official high and low records may vary slightly from our data, if they occured in-between our weather recording intervals... More about our weather records

Advertising

Chernobyl weather history for previous 24 hours

 ConditionsComfort  
Time TempWeatherWind HumidityBarometerVisibility
3:30 PM
Fri, Mar 6
37 °FPartly sunny.8 mph70%30.39 "HgN/A
3:00 PM39 °FPartly sunny.8 mph65%30.39 "HgN/A
2:30 PM37 °FPartly sunny.8 mph75%30.39 "HgN/A
2:00 PM37 °FPartly sunny.8 mph75%30.39 "HgN/A
1:30 PM37 °FPartly sunny.8 mph75%30.39 "HgN/A
1:00 PM39 °FPartly sunny.8 mph70%30.39 "HgN/A
12:30 PM39 °FPartly sunny.10 mph65%30.39 "HgN/A
12:00 PM37 °FPartly sunny.8 mph70%30.39 "HgN/A
11:30 AM37 °FPartly sunny.10 mph70%30.39 "HgN/A
11:00 AM37 °FPartly sunny.10 mph70%30.39 "HgN/A
10:30 AM37 °FPartly sunny.10 mph75%30.36 "HgN/A
10:00 AM37 °FScattered clouds.10 mph75%30.36 "HgN/A
9:30 AM37 °FPassing clouds.6 mph75%30.39 "HgN/A
9:00 AM34 °FPassing clouds.6 mph87%30.39 "HgN/A
8:00 AM32 °FSunny.1 mph93%30.36 "Hg10 mi
7:00 AM28 °FSunny.3 mph100%30.36 "Hg10 mi
6:00 AM30 °FChilly.6 mph93%30.36 "Hg6 mi
5:00 AM32 °FChilly.6 mph93%30.33 "Hg6 mi
4:00 AM30 °FChilly.6 mph93%30.33 "HgN/A
3:00 AM30 °FChilly.1 mph86%30.33 "Hg6 mi
2:00 AM30 °FChilly.3 mph86%30.33 "Hg4 mi
1:00 AM30 °FChilly.3 mph86%30.33 "HgN/A
12:00 AM30 °FChilly.3 mph86%30.33 "HgN/A
11:00 PM
Thu, Mar 5
30 °FChilly.3 mph86%30.33 "Hg5 mi
10:00 PM30 °FChilly.1 mph80%30.30 "HgN/A
9:00 PM30 °FChilly.3 mph80%30.30 "HgN/A
8:00 PM30 °FChilly.6 mph80%30.27 "HgN/A
7:00 PM34 °FChilly.8 mph70%30.27 "HgN/A
6:00 PM37 °FChilly.6 mph56%30.27 "HgN/A
5:00 PM41 °FSunny.8 mph49%30.24 "Hg10 mi
4:30 PM43 °FSunny.15 mph42%30.24 "Hg10 mi
4:00 PM43 °FSunny.13 mph46%30.24 "Hg10 mi
Weather by CustomWeather, © 2015

See weather overviewHow to use our weather pages